Погода в Борисовом-Судском

Россия / Вологодская область     59°54′18″N   36°00′03″E
темп.,
°C
ветер,
м/с
пор.,
м/с
влажн.,
%
обл.,
%
осадки,
мм/ч
давл.,
гПа
погр.,
м
8 марта, пн
пн800:00−12с249583 0.0 99281
03:00−10ссв5119392 0.4 996662
06:00−12ссв51192100 0.3 999640
09:00−13с51190100 0.4 1002570
12:00−12с5989100 0.1 1005519
15:00−12с598899 0.1 1008537
18:00−15с4992100 0.0 1010407
21:00−19с399697 0.0 1013305
9 марта, вт
вт900:00−21с279993 0.0 1015143
03:00−24с239857 0.0 101781
06:00−26с25980 0.0 1018100
09:00−25ссв35950 0.0 1020232
12:00−20ссв249058 0.0 1022377
15:00−17ссв248664 0.0 1023496
18:00−20с259684 0.0 1024148
21:00−26ссв249749 0.0 102681
10 марта, ср
ср1000:00−26ссв22970 0.0 102820
03:00−26сз11937 0.0 102919
06:00−25зсз228834 0.0 102919
09:00−20сз248454 0.0 1029172
12:00−15сз248088 0.0 1029421
15:00−12сз248683 0.0 1028518
18:00−14ссз2295100 0.0 102821
21:00−18сз229785 0.1 102920
11 марта, чт
чт1100:00−19сз129313 0.0 102920
03:00−20зсз11927 0.0 103020
06:00−20з11930 0.0 102920
09:00−16юз11900 0.0 102976
12:00−10ююз24830 0.0 1028377
15:00−8ю35825 0.0 1026669
18:00−11ю379250 0.0 1024229
21:00−14ю4129324 0.0 1023362
12 марта, пт
пт1200:00−15ю410910 0.0 1022324
03:00−17ю39940 0.0 1021264
06:00−18ююв399626 0.0 1019251
09:00−17ююв479553 0.0 1017258
12:00−11юв5990100 0.0 1015421
15:00−9юв6128869 0.0 1012593
18:00−9юв6149199 0.1 1010838
21:00−9юв5139199 0.3 1008867